This is the latest recevied weather packets stored in our database for station/object K7DC. If no packets are shown the sender has not sent any weather packets the latest 10 day(s).
| Time | Temp. | Humidity | Pressure | Rain* | Wind** | Luminosity | Snow |
|---|---|---|---|---|---|---|---|
| 1777225185 | 25° C | 26% | 1012.2 hPa | 0 mm | - | 834 W/m² | - |
| 1777224881 | 25° C | 27% | 1012.4 hPa | 0 mm | - | 826 W/m² | - |
| 1777224577 | 24.44° C | 28% | 1012.4 hPa | 0 mm | - | 814 W/m² | - |
| 1777224272 | 24.44° C | 28% | 1012.2 hPa | 0 mm | - | 804 W/m² | - |
| 1777223969 | 23.89° C | 28% | 1012.4 hPa | 0 mm | - | 791 W/m² | - |
| 1777223666 | 23.89° C | 28% | 1012.4 hPa | 0 mm | - | 782 W/m² | - |
| 1777223362 | 24.44° C | 28% | 1012.4 hPa | 0 mm | - | 771 W/m² | - |
| 1777223061 | 24.44° C | 28% | 1012 hPa | 0 mm | - | 757 W/m² | - |
| 1777222757 | 23.89° C | 28% | 1012.1 hPa | 0 mm | - | 743 W/m² | - |
| 1777222455 | 23.89° C | 29% | 1012.2 hPa | 0 mm | - | 730 W/m² | - |
| 1777222152 | 23.89° C | 28% | 1012.2 hPa | 0 mm | - | 719 W/m² | - |
| 1777221849 | 24.44° C | 27% | 1012 hPa | 0 mm | - | 704 W/m² | - |
| 1777221544 | 23.89° C | 28% | 1012 hPa | 0 mm | - | 688 W/m² | - |
| 1777221242 | 24.44° C | 27% | 1011.9 hPa | 0 mm | - | 674 W/m² | - |
| 1777220939 | 24.44° C | 26% | 1011.5 hPa | 0 mm | - | 656 W/m² | - |
| 1777220634 | 24.44° C | 26% | 1011.8 hPa | 0 mm | - | 642 W/m² | - |
| 1777220331 | 23.89° C | 26% | 1011.6 hPa | 0 mm | - | 627 W/m² | - |
| 1777220030 | 24.44° C | 25% | 1011.5 hPa | 0 mm | - | 610 W/m² | - |
| 1777219728 | 24.44° C | 25% | 1011.6 hPa | 0 mm | - | 596 W/m² | - |
| 1777219425 | 24.44° C | 25% | 1011.7 hPa | 0 mm | - | 582 W/m² | - |
| 1777219121 | 23.33° C | 24% | 1011.5 hPa | 0 mm | - | 566 W/m² | - |
| 1777218817 | 23.33° C | 24% | 1011.6 hPa | 0 mm | - | 546 W/m² | - |
| 1777218513 | 23.33° C | 24% | 1011.4 hPa | 0 mm | - | 531 W/m² | - |
| 1777218208 | 22.78° C | 25% | 1011.4 hPa | 0 mm | - | 515 W/m² | - |
| 1777217906 | 22.78° C | 24% | 1011.4 hPa | 0 mm | - | 496 W/m² | - |
* Rain latest hour (hover to see other rain measurements)
** Current wind speed in m/s (hover to see current wind gust speed)